Weather History for KIWI - October, 2013

Change the Weather History Date:

Sunday, October 20, 2013

  Actual Average Record
Temperature  
Mean Temperature 50 °F -  
Max Temperature 62 °F 53 °F 66 °F (2007)
Min Temperature 37 °F 33 °F 26 °F (2003)
Degree Days  
Heating Degree Days 14    
Moisture  
Dew Point 41 °F    
Average Humidity 65    
Maximum Humidity 93    
Minimum Humidity 31    
Precipitation  
Precipitation 0.01 in - - ()
Sea Level Pressure  
Sea Level Pressure 29.78 in    
Wind  
Wind Speed 4 mph (WSW)    
Max Wind Speed 13 mph    
Max Gust Speed 23 mph    
Visibility 10 miles    
Events Rain    
Averages and records for this station are not official NWS values.
T = Trace of Precipitation, MM = Missing Value Source: NWS Daily Summary

Daily Weather History Graph

Daily Weather History Graph

Search for Another Location

Airport or City:

Trip Planner

Search our weather history database for the weather conditions in past years. The results will help you decide how hot, cold, wet, or windy it might be!

Date:

Astronomy

Oct. 20, 2013 Rise Set
Actual Time 6:59 AM EDT 5:46 PM EDT
Civil Twilight 6:30 AM EDT 6:15 PM EDT
Nautical Twilight 5:57 AM EDT 6:49 PM EDT
Astronomical Twilight 5:23 AM EDT 7:22 PM EDT
Moon 6:48 PM EDT (10/20) 8:37 AM EDT (10/20)
Length of Visible Light 11h 45m
Length of Day
10h 46m
Full, 97% of the Moon is Illuminated
Oct 20
Full
Oct 26
Last Quarter
Nov 3
New
Nov 10
First Quarter
Nov 17
Full

Hourly Weather History & Observations

Time (EDT) Temp. Dew Point Humidity Pressure Visibility Wind Dir Wind Speed Gust Speed Precip Events Conditions
12:53 AM 55.9 °F 50.0 °F 80% 29.76 in 10.0 mi Variable 3.5 mph - N/A   Overcast
1:53 AM 55.9 °F 48.9 °F 77% 29.74 in 10.0 mi South 3.5 mph - N/A   Overcast
2:53 AM 55.0 °F 48.0 °F 77% 29.72 in 10.0 mi Calm Calm - 0.00 in Rain Light Rain
3:53 AM 53.1 °F 48.9 °F 86% 29.70 in 10.0 mi South 3.5 mph - 0.01 in Rain Light Rain
4:53 AM 54.0 °F 48.9 °F 83% 29.69 in 10.0 mi SSW 3.5 mph - 0.00 in   Overcast
5:53 AM 54.0 °F 50.0 °F 86% 29.68 in 10.0 mi Calm Calm - N/A   Mostly Cloudy
6:00 AM 53.6 °F 50.0 °F 88% 29.67 in 10.0 mi Calm Calm - N/A   Scattered Clouds
6:53 AM 54.0 °F 52.0 °F 93% 29.68 in 10.0 mi SW 3.5 mph - N/A   Overcast
7:53 AM 55.0 °F 52.0 °F 89% 29.69 in 10.0 mi Calm Calm - N/A   Clear
8:53 AM 55.9 °F 48.0 °F 75% 29.71 in 10.0 mi Variable 5.8 mph - N/A   Clear
9:53 AM 57.0 °F 46.9 °F 69% 29.72 in 10.0 mi West 9.2 mph - N/A   Clear
10:53 AM 59.0 °F 42.1 °F 53% 29.73 in 10.0 mi West 10.4 mph 16.1 mph N/A   Clear
11:53 AM 60.1 °F 37.9 °F 44% 29.74 in 10.0 mi West 10.4 mph 20.7 mph N/A   Partly Cloudy
12:53 PM 61.0 °F 35.1 °F 38% 29.74 in 10.0 mi West 11.5 mph 23.0 mph N/A   Clear
1:53 PM 62.1 °F 34.0 °F 35% 29.75 in 10.0 mi Variable 6.9 mph 21.9 mph N/A   Clear
2:53 PM 62.1 °F 30.9 °F 31% 29.77 in 10.0 mi WNW 12.7 mph 21.9 mph N/A   Clear
3:53 PM 61.0 °F 30.0 °F 31% 29.79 in 10.0 mi West 9.2 mph 21.9 mph N/A   Clear
4:53 PM 59.0 °F 28.9 °F 32% 29.81 in 10.0 mi Variable 6.9 mph 17.3 mph N/A   Clear
5:53 PM 55.9 °F 30.0 °F 37% 29.84 in 10.0 mi West 4.6 mph - N/A   Clear
6:53 PM 54.0 °F 30.0 °F 40% 29.86 in 10.0 mi West 4.6 mph - N/A   Clear
7:53 PM 46.0 °F 34.0 °F 63% 29.89 in 10.0 mi Calm Calm - N/A   Clear
8:53 PM 44.1 °F 35.1 °F 71% 29.91 in 9.0 mi Calm Calm - N/A   Clear
9:53 PM 42.1 °F 35.1 °F 76% 29.94 in 10.0 mi Calm Calm - N/A   Clear
10:53 PM 39.0 °F 35.1 °F 86% 29.96 in 10.0 mi Calm Calm - N/A   Clear
11:53 PM 37.0 °F 34.0 °F 89% 29.96 in 10.0 mi Calm Calm - N/A   Clear